Weather History for Cleveland Burke, OH

Change the Weather History Date:

Thursday, September 19, 2013

  Actual Average Record
Temperature  
Mean Temperature 70 °F -  
Max Temperature 80 °F 70 °F 87 °F (2002)
Min Temperature 60 °F 56 °F 48 °F (2012)
Cooling Degree Days 4    
Growing Degree Days 20 (Base 50)    
Moisture  
Dew Point 63 °F    
Average Humidity 78    
Maximum Humidity 94    
Minimum Humidity 58    
Precipitation  
Precipitation 0.00 in - - ()
Sea Level Pressure  
Sea Level Pressure 30.04 in    
Wind  
Wind Speed 9 mph (SSE)    
Max Wind Speed 14 mph    
Max Gust Speed 21 mph    
Visibility 5 miles    
Events      
Averages and records for this station are not official NWS values.
T = Trace of Precipitation, MM = Missing Value Source: NWS Daily Summary

Daily Weather History Graph

Daily Weather History Graph

Search for Another Location

Airport:

Trip Planner

Search our weather history database for the weather conditions in past years. The results will help you decide how hot, cold, wet, or windy it might be!

Date:

Astronomy

Sep. 19, 2013 Rise Set
Actual Time 7:11 AM EDT 7:28 PM EDT
Civil Twilight 6:43 AM EDT 7:56 PM EDT
Nautical Twilight 6:11 AM EDT 8:28 PM EDT
Astronomical Twilight 5:37 AM EDT 9:02 PM EDT
Moon 7:25 PM EDT (9/19) 7:19 AM EDT (9/19)
Length of Visible Light 13h 12m
Length of Day
12h 17m
Full, 100% of the Moon is Illuminated
Sep 19
Full
Sep 26
Last Quarter
Oct 4
New
Oct 11
First Quarter
Oct 18
Full

Hourly Weather History & Observations

Time (EDT) Temp. Dew Point Humidity Pressure Visibility Wind Dir Wind Speed Gust Speed Precip Events Conditions
12:53 AM 64.0 °F 59.0 °F 84% 30.08 in 10.0 mi SSE 9.2 mph - N/A   Clear
1:53 AM 62.1 °F 57.9 °F 86% 30.08 in 7.0 mi SSE 12.7 mph - N/A   Clear
2:28 AM 60.8 °F 57.2 °F 88% 30.08 in 5.0 mi South 9.2 mph - N/A   Scattered Clouds
2:38 AM 62.6 °F 59.0 °F 88% 30.08 in 5.0 mi SSE 11.5 mph 18.4 mph N/A   Mostly Cloudy
2:53 AM 62.1 °F 59.0 °F 90% 30.07 in 5.0 mi SSE 12.7 mph - N/A   Mostly Cloudy
3:16 AM 62.6 °F 59.0 °F 88% 30.08 in 5.0 mi SSE 8.1 mph - N/A   Scattered Clouds
3:53 AM 63.0 °F 60.1 °F 90% 30.07 in 5.0 mi Variable 4.6 mph - N/A   Mostly Cloudy
4:53 AM 64.0 °F 60.1 °F 87% 30.06 in 5.0 mi SE 5.8 mph - N/A   Mostly Cloudy
5:03 AM 62.6 °F 60.8 °F 94% 30.06 in 5.0 mi SSE 4.6 mph - N/A   Scattered Clouds
5:53 AM 64.0 °F 61.0 °F 90% 30.05 in 5.0 mi South 6.9 mph - N/A   Partly Cloudy
6:53 AM 64.0 °F 61.0 °F 90% 30.06 in 5.0 mi South 6.9 mph - N/A   Mostly Cloudy
7:51 AM 66.2 °F 62.6 °F 88% 30.08 in 2.5 mi SSE 8.1 mph - N/A   Overcast
7:53 AM 64.9 °F 62.1 °F 90% 30.08 in 3.0 mi SSE 8.1 mph - N/A   Overcast
8:53 AM 66.9 °F 63.0 °F 87% 30.08 in 3.0 mi SSE 8.1 mph - N/A   Overcast
9:53 AM 70.0 °F 64.0 °F 81% 30.08 in 4.0 mi SSE 9.2 mph - N/A   Haze
10:53 AM 71.1 °F 64.0 °F 78% 30.07 in 4.0 mi South 8.1 mph - N/A   Haze
11:53 AM 75.0 °F 64.9 °F 71% 30.06 in 6.0 mi SE 8.1 mph 16.1 mph N/A   Haze
12:09 PM 75.2 °F 64.4 °F 69% 30.06 in 2.5 mi SE 6.9 mph - N/A   Haze
12:22 PM 75.2 °F 64.4 °F 69% 30.06 in 5.0 mi SSE 9.2 mph - N/A   Haze
12:53 PM 78.1 °F 64.9 °F 64% 30.05 in 4.0 mi SE 6.9 mph - N/A   Haze
1:42 PM 78.8 °F 64.4 °F 61% 30.04 in 1.8 mi SSE 8.1 mph - N/A   Haze
1:53 PM 79.0 °F 64.9 °F 62% 30.03 in 4.0 mi SE 8.1 mph - N/A   Haze
2:53 PM 79.0 °F 64.0 °F 60% 30.01 in 7.0 mi SE 9.2 mph 16.1 mph N/A   Overcast
3:53 PM 79.0 °F 63.0 °F 58% 30.00 in 7.0 mi Variable 6.9 mph - N/A   Mostly Cloudy
4:53 PM 78.1 °F 64.0 °F 62% 30.01 in 7.0 mi SE 8.1 mph - N/A   Overcast
5:46 PM 75.2 °F 64.4 °F 69% 30.03 in 6.0 mi SSW 9.2 mph - N/A   Haze
5:53 PM 75.0 °F 64.0 °F 69% 30.02 in 6.0 mi SSW 11.5 mph 18.4 mph N/A   Haze
6:00 PM 75.2 °F 64.4 °F 69% 30.02 in 5.0 mi South 6.9 mph 18.4 mph N/A   Haze
6:53 PM 73.9 °F 64.9 °F 73% 30.00 in 5.0 mi South 10.4 mph - N/A   Haze
7:53 PM 72.0 °F 64.9 °F 78% 29.99 in 6.0 mi SSE 9.2 mph - N/A   Haze
8:53 PM 71.1 °F 64.0 °F 78% 29.97 in 5.0 mi SSE 12.7 mph 18.4 mph N/A   Haze
9:53 PM 70.0 °F 64.0 °F 81% 29.97 in 5.0 mi South 13.8 mph 20.7 mph N/A   Haze
10:16 PM 69.8 °F 64.4 °F 83% 29.99 in 5.0 mi South 10.4 mph 17.3 mph N/A   Haze
10:50 PM 69.8 °F 64.4 °F 83% 30.00 in 6.0 mi SSW 10.4 mph - N/A   Haze
10:53 PM 70.0 °F 64.0 °F 81% 29.99 in 6.0 mi South 8.1 mph - N/A   Haze
11:53 PM 70.0 °F 64.0 °F 81% 29.98 in 6.0 mi SSE 10.4 mph 17.3 mph N/A   Haze